Rome, GA

2:51 PM EST on November 11, 2019 (GMT -0500)
Russell

Weather History for KRMG - August, 2019

Change the Weather History Date:

Friday, August 23, 2019

  Actual Average Record
Temperature  
Mean Temperature 82 °F 78 °F  
Max Temperature 91 °F 89 °F 102 °F (2007)
Min Temperature 73 °F 67 °F 53 °F (1997)
Cooling Degree Days 18 13  
Month to date cooling degree days 401 323  
Year to date cooling degree days 1669 1267  
Since 1 June cooling degree days 1295 1099  
Growing Degree Days 32 (Base 50)    
Moisture  
Dew Point 72 °F    
Average Humidity 77    
Maximum Humidity 93    
Minimum Humidity 55    
Precipitation  
Precipitation 0.29 in 0.13 in 0.91 in (2005)
Month to date precipitation 3.33 3.11  
Year to date precipitation 40.09 34.40  
Sea Level Pressure  
Sea Level Pressure 29.99 in    
Wind  
Wind Speed 3 mph ()    
Max Wind Speed 20 mph    
Max Gust Speed 26 mph    
Visibility 9.1 miles    
Events Rain , Thunderstorm    
T = Trace of Precipitation, MM = Missing Value Source: Averaged Metar Reports

Daily Weather History Graph

Daily Weather History Graph

Search for Another Location

Airport or City:

Astronomy

Aug. 23, 2019 Rise Set
Actual Time 7:07 AM EDT 8:18 PM EDT
Civil Twilight 6:41 AM EDT 8:44 PM EDT
Nautical Twilight 6:10 AM EDT 9:15 PM EDT
Astronomical Twilight 5:37 AM EDT 9:47 PM EDT
Moon 12:27 AM EDT (8/23) 2:24 PM EDT (8/23)
Length of Visible Light 14h 03m
Length of Day
13h 11m
Waning Gibbous, 50% of the Moon is Illuminated
Aug 23
Waning Gibbous
Aug 30
New
Sep 5
First Quarter
Sep 14
Full
Sep 21
Last Quarter

Hourly Weather History & Observations

Time (EDT) Temp. Heat Index Dew Point Humidity Pressure Visibility Wind Dir Wind Speed Gust Speed Precip Events Conditions
12:53 AM 75.9 °F - 72.0 °F 87% 29.99 in 10.0 mi Calm Calm - 0.00 in   Mostly Cloudy
1:53 AM 77.0 °F - 70.0 °F 79% 30.00 in 10.0 mi SW 5.8 mph - 0.00 in Rain Light Rain
2:53 AM 75.0 °F - 71.1 °F 87% 29.98 in 10.0 mi Calm Calm - 0.01 in   Scattered Clouds
3:53 AM 73.0 °F - 70.0 °F 90% 29.97 in 10.0 mi Calm Calm - N/A   Clear
4:53 AM 73.0 °F - 71.1 °F 93% 29.97 in 10.0 mi SSW 4.6 mph - N/A   Clear
5:53 AM 73.0 °F - 70.0 °F 90% 29.99 in 10.0 mi Calm Calm - N/A   Partly Cloudy
6:53 AM 73.0 °F - 71.1 °F 93% 30.01 in 9.0 mi Calm Calm - N/A   Mostly Cloudy
7:53 AM 73.9 °F - 71.1 °F 91% 30.03 in 10.0 mi NNW 3.5 mph - N/A   Overcast
8:53 AM 75.9 °F - 72.0 °F 87% 30.04 in 9.0 mi North 3.5 mph - 0.00 in Rain Light Rain
9:53 AM 78.1 °F - 73.9 °F 87% 30.04 in 10.0 mi South 5.8 mph - 0.00 in   Scattered Clouds
10:53 AM 82.0 °F 87.9 °F 73.9 °F 76% 30.04 in 10.0 mi Calm Calm - N/A   Clear
11:53 AM 86.0 °F 93.0 °F 73.0 °F 65% 30.03 in 10.0 mi Calm Calm - N/A   Scattered Clouds
12:02 PM 86.0 °F 92.2 °F 72.0 °F 63% 30.05 in 10.0 mi Calm Calm - N/A   Mostly Cloudy
12:33 PM 87.1 °F 94.5 °F 73.0 °F 63% 30.03 in 10.0 mi SE 3.5 mph - N/A   Mostly Cloudy
12:53 PM 87.1 °F 93.6 °F 72.0 °F 61% 29.99 in 10.0 mi South 3.5 mph - N/A   Mostly Cloudy
1:53 PM 89.1 °F 96.0 °F 72.0 °F 57% 29.97 in 10.0 mi SE 6.9 mph - N/A   Clear
2:32 PM 89.6 °F 96.2 °F 71.6 °F 55% 30.00 in 10.0 mi Variable 5.8 mph - N/A Thunderstorm Partly Cloudy
2:53 PM 89.1 °F 96.0 °F 72.0 °F 57% 29.96 in 10.0 mi SSW 5.8 mph - N/A Thunderstorm Thunderstorm
3:05 PM 84.0 °F 89.6 °F 72.0 °F 67% 30.00 in 1.5 mi Variable 3.5 mph - 0.06 in Rain , Thunderstorm Heavy Thunderstorms and Rain
3:13 PM 81.0 °F 85.8 °F 73.0 °F 77% 30.00 in 0.5 mi North 11.5 mph - 0.26 in Rain , Thunderstorm Heavy Thunderstorms and Rain
3:18 PM 82.0 °F 87.9 °F 73.9 °F 76% 30.00 in 2.0 mi North 13.8 mph 19.6 mph 0.28 in Rain , Thunderstorm Light Thunderstorms and Rain
3:25 PM 79.0 °F - 73.0 °F 82% 30.01 in 10.0 mi NNE 19.6 mph 26.5 mph 0.28 in Thunderstorm Thunderstorm
3:53 PM 81.0 °F 85.8 °F 73.0 °F 77% 29.97 in 10.0 mi North 4.6 mph - 0.28 in Thunderstorm Mostly Cloudy
4:08 PM 81.0 °F 85.8 °F 73.0 °F 77% 29.99 in 10.0 mi ENE 4.6 mph - N/A   Partly Cloudy
4:53 PM 84.0 °F 91.9 °F 75.0 °F 74% 29.96 in 10.0 mi ENE 6.9 mph - N/A   Clear
5:53 PM 84.0 °F 91.2 °F 73.9 °F 72% 29.96 in 10.0 mi NE 4.6 mph - N/A   Clear
6:53 PM 84.0 °F 91.2 °F 73.9 °F 72% 29.95 in 10.0 mi ENE 4.6 mph - N/A   Clear
7:53 PM 82.9 °F 89.4 °F 73.9 °F 74% 29.96 in 10.0 mi NE 3.5 mph - N/A   Clear
9:53 PM 78.1 °F - 72.0 °F 81% 29.97 in 10.0 mi East 3.5 mph - N/A   Clear
10:53 PM 77.0 °F - 72.0 °F 84% 29.98 in 10.0 mi North 4.6 mph - N/A   Clear
11:53 PM 75.0 °F - 72.0 °F 90% 30.00 in 10.0 mi Calm Calm - N/A   Clear